{"data":{"norad_id":48224,"epoch":"2026-05-24T21:53:43.991808Z","epoch_age_seconds":85828,"freshness":"FRESH","line1":"1 48224U 21031Q   26144.91231472 -.00000207  00000+0 -59247-3 0  9993","line2":"2 48224  87.8945 294.3500 0001148 103.7081 256.4176 13.14501563245304","mean_motion":13.14501563,"eccentricity":0.0001148,"inclination_deg":87.8945,"raan_deg":294.35,"arg_perigee_deg":103.7081,"mean_anomaly_deg":256.4176,"bstar":-0.00059247,"rev_number":24530,"period_min":109.54722615267,"perigee_km":1204.9244770949,"apogee_km":1206.6657479079,"semimajor_km":7583.9321125014,"source":"CELESTRAK","updated_at":"2026-05-25T13:38:22.436064Z"}}